Date,TemperatureHighF,TemperatureAvgF,TemperatureLowF,DewpointHighF,DewpointAvgF,DewpointLowF,HumidityHigh,HumidityAvg,HumidityLow,PressureMaxIn,PressureMinIn,WindSpeedMaxMPH,WindSpeedAvgMPH,GustSpeedMaxMPH,PrecipitationSumIn
2013-1-1,53.6,45.5,40.1,43.5,36.9,30.8,100,74,47,30.24,30.15,12,2,13,0.66
2013-1-2,57.2,44.4,38.1,39.0,35.8,32.5,95,73,45,30.18,30.06,6,1,6,0.00
2013-1-3,54.0,44.3,38.5,42.3,38.7,33.6,95,81,58,30.21,30.09,8,1,8,0.66
2013-1-4,56.8,46.5,40.6,40.7,38.4,35.9,90,74,50,30.24,30.12,8,1,9,0.00
2013-1-5,52.5,46.9,41.7,49.7,45.8,39.8,100,96,88,30.18,30.00,6,0,6,0.66
2013-1-6,53.4,47.2,42.8,50.4,45.9,42.8,100,95,74,30.12,30.00,10,1,10,0.66
2013-1-7,58.8,47.9,41.2,53.7,47.2,41.2,100,97,80,30.21,30.09,5,0,6,0.00
2013-1-8,56.5,48.3,44.2,51.6,46.8,44.2,100,95,73,30.18,30.06,6,1,6,0.66
2013-1-9,49.1,47.0,44.2,49.1,42.9,35.0,100,87,62,30.09,29.97,12,2,13,0.00
2013-1-10,52.3,44.7,39.9,38.3,34.5,28.9,88,68,49,30.18,30.03,9,2,11,0.00
2013-1-11,54.1,45.6,39.9,42.2,35.5,26.8,95,69,47,30.27,30.09,13,2,13,0.00
2013-1-12,51.6,41.6,36.0,40.5,34.2,27.1,96,77,42,30.27,30.09,5,0,5,0.00
2013-1-13,51.1,39.6,32.4,35.4,30.8,23.4,97,73,39,30.24,30.12,5,1,8,0.00
2013-1-14,52.2,42.5,36.9,32.6,24.9,20.3,78,50,34,30.39,30.21,11,1,11,0.00
2013-1-15,53.1,42.0,36.7,40.8,33.4,29.9,100,73,47,30.44,30.33,6,1,7,0.00
2013-1-16,55.9,44.5,38.1,39.3,35.0,32.2,86,70,49,30.39,30.24,7,1,7,0.00
2013-1-17,61.7,48.7,42.8,41.9,35.1,32.8,70,60,42,30.24,30.12,8,1,8,0.00
2013-1-18,62.8,51.2,44.4,39.5,36.4,30.9,76,58,39,30.21,30.09,7,1,8,0.00
2013-1-19,62.2,50.8,44.2,40.2,34.9,30.8,68,55,41,30.21,30.09,6,1,9,0.17
2013-1-20,63.1,51.4,45.3,38.1,33.8,30.3,67,52,38,30.21,30.06,6,1,7,0.00
2013-1-21,62.8,51.0,43.3,41.3,37.7,31.9,79,61,42,30.15,30.00,7,2,7,0.00
2013-1-22,59.9,52.2,46.2,44.7,41.0,38.4,77,66,49,30.06,29.94,7,2,8,0.00
2013-1-23,55.0,51.6,49.6,51.6,48.0,43.8,100,88,74,30.09,29.88,4,0,4,0.29
2013-1-24,59.2,53.3,49.6,56.1,52.4,49.6,100,97,83,30.18,30.00,6,0,6,0.00
2013-1-25,66.2,56.1,51.6,59.0,54.4,51.6,100,94,70,30.15,29.97,6,0,6,0.00
2013-1-26,58.3,52.7,46.6,52.2,47.0,35.2,100,83,44,30.03,29.91,10,2,12,0.59
2013-1-27,57.2,48.4,40.8,42.2,37.8,33.3,88,67,50,30.12,29.97,9,1,10,0.59
2013-1-28,58.6,50.2,42.8,43.6,40.0,36.2,89,69,50,30.27,30.09,9,2,13,0.29
2013-1-29,60.3,49.5,43.2,49.8,43.4,39.6,94,80,59,30.27,30.18,6,1,7,0.00
2013-1-30,64.8,51.5,44.8,53.7,46.5,43.1,100,85,57,30.27,30.18,6,1,9,0.00
2013-1-31,63.1,52.0,45.5,49.5,46.8,44.9,99,84,54,30.27,30.12,3,0,3,0.00